Torna al catalogo

CZ-6A DEB

AttivoSSO
NORAD 54268·DEBRIS·🇨🇳 China

Lanciato Nov 11, 2022 da Taiyuan Satellite Launch Center

Loading…

Prossimi Passaggi (prossime 24 ore)

TLE

AggiornatoSource: Space-Track

Epoca: Sep 14, 2026, 08:38 UTC

1 54268U 22151K   26257.35993311 -.00000167  00000-0 -88554-4 0  9992
2 54268  98.9085 220.4961 0121408 195.3834 164.3624 13.94136973194791

Traccia CZ-6A DEB in tempo reale con AllMySat

Download on the App Store